Regional Weather Roundup
Issued by NWS

Home | Current Version | Previous Version | Graphics & Text | Print | Product List | Glossary On
Versions: 1 2 3 4 5 6 7 8 9 10 11 12 13 14 15 16 17 18 19 20 21 22 23 24 25 26 27 28 29 30 31 32 33 34 35 36 37 38 39 40 41 42 43 44 45 46 47 48 49 50
000
ASUS45 KTFX 061910
RWRMT
MONTANA REGIONAL WEATHER ROUNDUP
NATIONAL WEATHER SERVICE GREAT FALLS MT
1200 PM MST TUE DEC 06 2016

NOTE: "FAIR" INDICATES FEW OR NO CLOUDS BELOW 12000 FEET WITH NO
SIGNIFICANT WEATHER AND/OR OBSTRUCTIONS TO VISIBILITY.

MTZ001>007-043-062000-
WEST OF THE DIVIDE

CITY           SKY/WX    TMP DP  RH WIND       PRES   REMARKS
MISSOULA       CLOUDY    20   6  55 E14       29.97F WCI   7
BUTTE          CLOUDY    10   2  69 SE13      29.83F WCI  -5
MULLAN PASS    CLOUDY    10   7  87 VRB3      29.76S FOG
ANACONDA         N/A     10   3  72 N7        29.88F WCI   0
DEER LODGE       N/A     10   3  72 N6        29.93F WCI   1
EUREKA           N/A     14   7  73 CALM      30.09S
HAMILTON         N/A     21  14  73 CALM      29.91F
LIBBY            N/A     19  14  79 CALM      30.04F
PLAINS           N/A     22  13  68 CALM      30.02S
$$

MTZ008-052>055-062000-
SOUTHWEST MONTANA

CITY           SKY/WX    TMP DP  RH WIND       PRES   REMARKS
DILLON         CLOUDY    11   3  70 VRB3      29.84F
THREE FORKS      N/A     14 -30  12 N2        29.95F
TWIN BRIDGES     N/A     14   1  56 S13       29.87F WCI   0
$$

MTZ009-010-012-014-046-048-049-054-062000-
EAST SLOPES AND CENTRAL MONTANA

CITY           SKY/WX    TMP DP  RH WIND       PRES   REMARKS
GREAT FALLS    CLOUDY     3  -5  69 N8        30.15F WCI -10
HELENA         CLOUDY     9  -1  64 NW8       30.05F WCI  -3
CHOTEAU          N/A      1  -6  71 MISG      30.14F
CONRAD           N/A      1  -6  72 W8        30.16S WCI -13
$$

MTZ011-013-016-021-045-047-050-051-062000-
NORTH CENTRAL MONTANA

CITY           SKY/WX    TMP DP  RH WIND       PRES   REMARKS
HAVRE          CLOUDY     1  -7  68 NW18      30.25F WCI -20
CHINOOK          N/A      1  -8  66 W20G26    30.24F WCI -20
$$

MTZ017>020-022>027-061-062-062000-
NORTHEAST MONTANA

CITY           SKY/WX    TMP DP  RH WIND       PRES   REMARKS
GLASGOW        SUNNY      4  -6  63 NW25G35   30.15F WCI -19
JORDAN           N/A      5  -4  66 NW20      30.14F WCI -15
WOLF POINT     CLOUDY     4  -6  63 W16       30.15F WCI -15
PLENTYWOOD       N/A      3  -2  78 NW23G32   30.01F VSB 1   WCI -19
POPLAR           N/A      3  -6  66 NW21      30.11F WCI -18
SCOBEY           N/A      2 -10  57 NW21      30.04S WCI -20
$$

MTZ028>42-056>058-062000-
SOUTHCENTRAL AND SOUTHEAST MONTANA

CITY           SKY/WX    TMP DP  RH WIND       PRES   REMARKS
BAKER          CLOUDY     4  -4  69 NW23G32   30.03S WCI -18
BILLINGS       CLOUDY    12   5  73 SE5       30.04F
LIVINGSTON     FLURRIES   9   3  77 E9        29.94F WCI  -4
MILES CITY     MOSUNNY    9  -5  53 NW22      30.12F WCI -11
BIG TIMBER     CLOUDY    10   3  72 NE9       29.99F WCI  -2
FORSYTH          N/A      9  -2  61 NW10      30.14F WCI  -6
LAUREL           N/A     13   1  58 CALM      30.02F
ROUNDUP          N/A     13  -1  53 S6        29.97F WCI   4
$$

REGIONAL REPORTS...DAKOTAS

CITY           SKY/WX    TMP DP  RH WIND       PRES   REMARKS
WILLISTON      CLOUDY     6  -2  69 NW22G29   30.04F HAZE    WCI -15
BISMARCK       LGT SNOW   9   7  92 NW24G37   29.88S FOG     WCI -12
GRAND FORKS    HVY SNOW  26  23  88 NW36G41   29.38R VSB 1/4 WCI   8
FARGO          SNOW      21  17  84 W37G47    29.46R VSB 1/2 WCI   1
BUFFALO SD       N/A      7  -2  66 NW31G40   29.91S WCI -17
RAPID CITY     SUNNY     20   2  45 N26       29.95F WCI   2
$$

REGIONAL REPORTS...WYOMING/IDAHO/WASHINGTON

CITY           SKY/WX    TMP DP  RH WIND       PRES   REMARKS
GILLETTE       MOSUNNY    6   1  80 NW12      29.97F WCI  -9
SHERIDAN       CLOUDY    11   3  70 W7        30.01F WCI   0
BUFFALO WY     LGT SNOW   9   2  73 CALM      29.94F
YELLOWSTONE LA   N/A      8  -3  61 SW7       29.71F WCI  -3
IDAHO FALLS    CLOUDY    16   6  65 N8        29.83F WCI   5
BOISE          CLOUDY    25  20  81 S5        29.92F
SPOKANE        PTSUNNY   26  13  57 N14       29.99S WCI  14
$$

REGIONAL REPORTS...ALBERTA

CITY           SKY/WX    TMP DP  RH WIND       PRES   REMARKS
$$

REGIONAL REPORTS...SASKATCHEWAN

CITY           SKY/WX    TMP DP  RH WIND       PRES   REMARKS
$$



USA.gov is the U.S. government's official web portal to all federal, state and local government web resources and services.